Location: 3 Angels Observatory
(30.5437°N, 88.5068°W)
Time: 09:45:54
(UTC-05:00)

Oscar 19 - Visible Passes

Search period start: 29 July 2014 00:00
Search period end: 08 August 2014 00:00
Orbit: 774 x 792 km, 98.5° (Epoch: 27 July)

Date Brightness Start Highest point End Pass type
(mag) Time Alt. Az. Time Alt. Az. Time Alt. Az.
29 Jul 12.9 01:53:54 10° NNE 01:55:40 20° NE 01:55:40 20° NE visible
29 Jul 12.5 03:33:55 10° NNW 03:36:14 19° NW 03:36:14 19° NW visible
30 Jul 12.2 03:01:31 10° N 03:04:15 29° NNW 03:04:15 29° NNW visible
31 Jul 12.3 02:29:45 10° NNE 02:32:15 30° NNE 02:32:15 30° NNE visible
01 Aug 12.9 01:58:31 10° NNE 02:00:15 20° NE 02:00:15 20° NE visible
01 Aug 12.6 03:38:51 10° NNW 03:40:50 17° NW 03:40:50 17° NW visible
02 Aug 13.5 01:28:05 10° NE 01:28:15 11° NE 01:28:15 11° NE visible
02 Aug 12.3 03:06:18 10° N 03:08:50 26° NNW 03:08:50 26° NNW visible
03 Aug 12.4 02:34:28 10° N 02:36:50 28° N 02:36:50 28° N visible
04 Aug 12.9 02:03:08 10° NNE 02:04:50 20° NE 02:04:50 20° NE visible
04 Aug 12.8 03:43:49 10° NNW 03:45:24 15° NW 03:45:24 15° NW visible
05 Aug 13.5 01:32:33 10° NE 01:32:50 11° NE 01:32:50 11° NE visible
05 Aug 12.4 03:11:07 10° N 03:13:24 23° NNW 03:13:24 23° NNW visible
06 Aug 12.5 02:39:11 10° N 02:41:24 26° N 02:41:24 26° N visible
07 Aug 13.0 02:07:47 10° NNE 02:09:24 20° NNE 02:09:24 20° NNE visible
07 Aug 12.9 03:48:51 10° NNW 03:49:58 13° NW 03:49:58 13° NW visible
